{"data":{"norad_id":68311,"intl_designator":"2026-057T","name":"STARLINK-37140","alt_names":[],"object_type":"PAYLOAD","status":"ACTIVE","operator":null,"country":"US","launch_date":"2026-03-20","launch_site_code":"AFWTR","launch_vehicle":null,"mission":null,"orbit_class":"UNKNOWN","rcs_meters":null,"size_class":null,"mass_kg":null,"dimensions":null,"purposes":["comms"],"wikipedia_slug":null,"has_3d_model":false,"image_url":null,"decayed_at":null,"tle_current":{"epoch":"2026-05-24T21:24:06.810336Z","epoch_age_seconds":84724,"freshness":"FRESH","line1":"1 68311U 26057T   26144.89174549  .00228090  00000+0  14870-2 0  9995","line2":"2 68311  97.2856 271.1650 0001964  64.8354 295.3115 15.75229471 10280","mean_motion":15.75229471,"eccentricity":0.0001964,"inclination_deg":97.2856,"raan_deg":271.165,"arg_perigee_deg":64.8354,"mean_anomaly_deg":295.3115,"bstar":0.001487,"rev_number":1028,"period_min":91.415252603536,"perigee_km":342.65805085427,"apogee_km":345.29849773402,"semimajor_km":6722.1152742941,"source":"CELESTRAK","updated_at":"2026-05-25T13:38:21.919170Z"}}}